TimePST,TemperatureF,Dew PointF,Humidity,Sea Level PressureIn,VisibilityMPH,Wind Direction,Wind SpeedMPH,Gust SpeedMPH,PrecipitationIn,Events,Conditions,WindDirDegrees,DateUTC
12:56 AM,52.9,52.9,100,30.27,5.0,Variable,3.5,-,0.00,Rain,Light Rain,0,2012-11-24 08:56:00
1:56 AM,52.9,52.0,97,30.25,10.0,Variable,3.5,-,0.00,,Overcast,0,2012-11-24 09:56:00
2:56 AM,52.0,52.0,100,30.26,9.0,East,4.6,-,0.00,Rain,Light Rain,90,2012-11-24 10:56:00
3:56 AM,52.9,52.9,100,30.24,10.0,Variable,3.5,-,0.00,,Overcast,0,2012-11-24 11:56:00
4:56 AM,52.0,52.0,100,30.23,2.5,Variable,3.5,-,0.00,Rain,Light Rain,0,2012-11-24 12:56:00
5:14 AM,51.8,51.8,100,30.23,1.2,ESE,3.5,-,0.01,Rain,Light Rain,110,2012-11-24 13:14:00
5:26 AM,51.8,51.8,100,30.23,1.5,Variable,4.6,-,0.02,Rain,Light Rain,0,2012-11-24 13:26:00
5:56 AM,52.0,52.0,100,30.23,1.8,Variable,5.8,-,0.03,Rain,Light Rain,0,2012-11-24 13:56:00
6:03 AM,51.8,51.8,100,30.23,2.0,Variable,3.5,-,0.00,Rain,Light Rain,0,2012-11-24 14:03:00
6:08 AM,51.8,51.8,100,30.23,1.5,South,4.6,-,0.01,Rain,Light Rain,170,2012-11-24 14:08:00
6:13 AM,51.8,51.8,100,30.23,1.0,SSE,6.9,-,0.02,Rain,Light Rain,160,2012-11-24 14:13:00
6:22 AM,51.8,51.8,100,30.23,1.2,Variable,3.5,-,0.03,Rain,Light Rain,0,2012-11-24 14:22:00
6:33 AM,51.8,51.8,100,30.23,1.5,Variable,5.8,-,0.05,Rain,Light Rain,0,2012-11-24 14:33:00
6:43 AM,51.8,51.8,100,30.23,1.2,Variable,4.6,-,0.06,Rain,Light Rain,0,2012-11-24 14:43:00
6:56 AM,50.9,50.9,100,30.23,1.5,Variable,5.8,-,0.08,Rain,Light Rain,0,2012-11-24 14:56:00
7:46 AM,51.8,51.8,100,30.22,1.0,SE,4.6,-,0.02,Rain,Light Rain,130,2012-11-24 15:46:00
7:56 AM,52.0,52.0,100,30.23,1.0,SE,4.6,-,0.02,Rain,Light Rain,130,2012-11-24 15:56:00
8:15 AM,51.8,51.8,100,30.23,0.8,SSE,4.6,-,0.01,Rain,Light Rain,150,2012-11-24 16:15:00
8:22 AM,51.8,51.8,100,30.23,0.5,Variable,3.5,-,0.01,Fog-Rain,Light Rain,0,2012-11-24 16:22:00
8:31 AM,51.8,51.8,100,30.23,0.8,South,6.9,-,0.01,Rain,Light Rain,170,2012-11-24 16:31:00
8:45 AM,51.8,51.8,100,30.23,1.0,Variable,3.5,-,0.01,Rain,Light Rain,0,2012-11-24 16:45:00
8:56 AM,52.0,52.0,100,30.24,1.0,Variable,4.6,-,0.01,Rain,Light Rain,0,2012-11-24 16:56:00
9:00 AM,51.8,51.8,100,30.23,0.8,Variable,3.5,-,0.00,Rain,Light Rain,0,2012-11-24 17:00:00
9:16 AM,51.8,51.8,100,30.23,1.0,Variable,4.6,-,0.01,Rain,Light Rain,0,2012-11-24 17:16:00
9:31 AM,53.6,53.6,100,30.23,1.5,Variable,3.5,-,0.01,Rain,Light Rain,0,2012-11-24 17:31:00
9:42 AM,53.6,53.6,100,30.23,2.0,SSE,5.8,-,0.02,,Overcast,150,2012-11-24 17:42:00
9:56 AM,52.9,52.9,100,30.24,2.0,SSE,5.8,-,0.02,,Overcast,150,2012-11-24 17:56:00
10:06 AM,53.6,53.6,100,30.23,1.2,SSE,3.5,-,0.00,Rain,Light Rain,150,2012-11-24 18:06:00
10:27 AM,53.6,53.6,100,30.23,0.8,Variable,3.5,-,0.01,Rain,Light Rain,0,2012-11-24 18:27:00
10:36 AM,53.6,53.6,100,30.23,1.0,SE,4.6,-,0.02,Rain,Light Rain,140,2012-11-24 18:36:00
10:42 AM,53.6,53.6,100,30.23,0.8,South,5.8,-,0.02,Rain,Light Rain,180,2012-11-24 18:42:00
10:56 AM,52.9,52.9,100,30.24,0.5,Calm,Calm,-,0.06,Fog-Rain,Rain,0,2012-11-24 18:56:00
11:23 AM,53.6,53.6,100,30.22,0.8,SSE,4.6,-,0.02,Rain,Light Rain,160,2012-11-24 19:23:00
11:29 AM,53.6,53.6,100,30.21,1.0,SSE,4.6,-,0.02,Rain,Light Rain,160,2012-11-24 19:29:00
11:40 AM,53.6,53.6,100,30.21,0.5,Variable,4.6,-,0.03,Fog,Fog,0,2012-11-24 19:40:00
11:56 AM,52.0,52.0,100,30.21,0.2,SSE,4.6,-,0.03,Fog,Fog,160,2012-11-24 19:56:00
12:09 PM,51.8,51.8,100,30.21,0.5,Calm,Calm,-,0.01,Fog,Fog,0,2012-11-24 20:09:00
12:56 PM,52.9,52.9,100,30.20,0.5,SSE,5.8,-,0.03,Fog,Fog,150,2012-11-24 20:56:00
1:09 PM,53.6,53.6,100,30.18,1.0,SE,5.8,-,0.01,,Overcast,130,2012-11-24 21:09:00
1:18 PM,53.6,53.6,100,30.19,0.5,SSE,5.8,-,0.02,Fog-Rain,Light Rain,150,2012-11-24 21:18:00
1:56 PM,52.9,52.9,100,30.19,0.5,Calm,Calm,-,0.05,Fog-Rain,Light Rain,0,2012-11-24 21:56:00
2:20 PM,53.6,53.6,100,30.18,1.0,South,3.5,-,0.02,Rain,Light Rain,170,2012-11-24 22:20:00
2:31 PM,53.6,53.6,100,30.18,1.2,Calm,Calm,-,0.02,,Overcast,0,2012-11-24 22:31:00
2:43 PM,53.6,53.6,100,30.18,1.0,Calm,Calm,-,0.02,,Overcast,0,2012-11-24 22:43:00
2:56 PM,52.9,52.9,100,30.18,0.5,Calm,Calm,-,0.02,Fog-Rain,Light Rain,0,2012-11-24 22:56:00
3:26 PM,53.6,53.6,100,30.17,0.8,Calm,Calm,-,0.01,,Overcast,0,2012-11-24 23:26:00
3:34 PM,53.6,53.6,100,30.17,1.0,Calm,Calm,-,0.01,,Overcast,0,2012-11-24 23:34:00
3:56 PM,52.9,52.9,100,30.18,1.0,Calm,Calm,-,0.01,,Overcast,0,2012-11-24 23:56:00
4:04 PM,53.6,53.6,100,30.17,0.5,Calm,Calm,-,N/A,Fog,Fog,0,2012-11-25 00:04:00
4:22 PM,53.6,53.6,100,30.17,0.8,Calm,Calm,-,0.01,,Overcast,0,2012-11-25 00:22:00
4:39 PM,53.6,53.6,100,30.16,1.0,Calm,Calm,-,0.01,,Overcast,0,2012-11-25 00:39:00
4:49 PM,53.6,53.6,100,30.15,1.5,Calm,Calm,-,0.01,,Overcast,0,2012-11-25 00:49:00
4:56 PM,52.9,52.9,100,30.15,3.0,SE,4.6,-,0.01,Rain,Light Rain,140,2012-11-25 00:56:00
5:14 PM,53.6,53.6,100,30.16,1.2,WNW,3.5,-,0.00,Rain,Light Rain,290,2012-11-25 01:14:00
5:16 PM,53.6,53.6,100,30.16,0.5,Variable,4.6,-,0.00,Fog-Rain,Light Rain,0,2012-11-25 01:16:00
5:24 PM,51.8,51.8,100,30.15,0.2,NNW,4.6,-,0.01,Fog-Rain,Light Rain,330,2012-11-25 01:24:00
5:34 PM,51.8,51.8,100,30.15,0.8,Calm,Calm,-,0.01,Rain,Light Rain,0,2012-11-25 01:34:00
5:46 PM,51.8,51.8,100,30.15,1.2,Calm,Calm,-,0.01,Rain,Light Rain,0,2012-11-25 01:46:00
5:56 PM,52.0,52.0,100,30.15,2.0,Calm,Calm,-,0.01,Rain,Light Rain,0,2012-11-25 01:56:00
6:05 PM,51.8,51.8,100,30.14,4.0,ENE,3.5,-,N/A,,Overcast,60,2012-11-25 02:05:00
6:56 PM,52.0,52.0,100,30.14,0.8,WSW,3.5,-,N/A,,Overcast,240,2012-11-25 02:56:00
7:03 PM,51.8,51.8,100,30.14,0.5,Calm,Calm,-,N/A,Fog,Fog,0,2012-11-25 03:03:00
7:11 PM,51.8,51.8,100,30.14,0.2,Calm,Calm,-,N/A,Fog,Fog,0,2012-11-25 03:11:00
7:37 PM,51.8,51.8,100,30.13,0.5,NNW,3.5,-,0.00,Fog-Rain,Light Rain,340,2012-11-25 03:37:00
7:46 PM,51.8,51.8,100,30.13,0.2,Calm,Calm,-,0.00,Fog,Fog,0,2012-11-25 03:46:00
7:56 PM,52.0,52.0,100,30.14,0.8,Calm,Calm,-,0.00,,Overcast,0,2012-11-25 03:56:00
8:00 PM,51.8,51.8,100,30.13,1.2,Calm,Calm,-,N/A,,Overcast,0,2012-11-25 04:00:00
8:04 PM,51.8,51.8,100,30.13,1.8,Calm,Calm,-,N/A,,Overcast,0,2012-11-25 04:04:00
8:12 PM,51.8,51.8,100,30.13,2.0,Calm,Calm,-,N/A,,Overcast,0,2012-11-25 04:12:00
8:24 PM,51.8,51.8,100,30.14,4.0,Calm,Calm,-,N/A,,Overcast,0,2012-11-25 04:24:00
8:48 PM,51.8,51.8,100,30.14,5.0,Calm,Calm,-,N/A,,Overcast,0,2012-11-25 04:48:00
8:56 PM,52.0,52.0,100,30.14,5.0,NE,3.5,-,N/A,,Overcast,40,2012-11-25 04:56:00
9:10 PM,51.8,51.8,100,30.14,1.8,Calm,Calm,-,N/A,,Overcast,0,2012-11-25 05:10:00
9:28 PM,51.8,51.8,100,30.14,3.0,Calm,Calm,-,N/A,,Overcast,0,2012-11-25 05:28:00
9:37 PM,51.8,51.8,100,30.14,2.0,Calm,Calm,-,N/A,,Overcast,0,2012-11-25 05:37:00
9:56 PM,52.0,52.0,100,30.15,1.0,Calm,Calm,-,N/A,,Overcast,0,2012-11-25 05:56:00
10:04 PM,51.8,51.8,100,30.14,1.5,Calm,Calm,-,N/A,,Overcast,0,2012-11-25 06:04:00
10:12 PM,51.8,51.8,100,30.14,2.5,Calm,Calm,-,N/A,,Overcast,0,2012-11-25 06:12:00
10:16 PM,51.8,51.8,100,30.14,1.2,Calm,Calm,-,N/A,,Overcast,0,2012-11-25 06:16:00
10:20 PM,51.8,51.8,100,30.14,0.8,Calm,Calm,-,N/A,,Overcast,0,2012-11-25 06:20:00
10:35 PM,51.8,51.8,100,30.14,0.8,Calm,Calm,-,N/A,,Overcast,0,2012-11-25 06:35:00
10:45 PM,51.8,51.8,100,30.14,1.0,West,3.5,-,N/A,,Overcast,280,2012-11-25 06:45:00
10:49 PM,51.8,51.8,100,30.14,0.5,WNW,3.5,-,N/A,Fog,Fog,290,2012-11-25 06:49:00
10:56 PM,52.0,52.0,100,30.14,0.2,Calm,Calm,-,N/A,Fog,Fog,0,2012-11-25 06:56:00
11:03 PM,51.8,51.8,100,30.14,0.2,Calm,Calm,-,N/A,Fog,Fog,0,2012-11-25 07:03:00
11:07 PM,51.8,51.8,100,30.14,0.5,Calm,Calm,-,N/A,Fog,Fog,0,2012-11-25 07:07:00
11:27 PM,51.8,51.8,100,30.14,0.8,Calm,Calm,-,N/A,,Overcast,0,2012-11-25 07:27:00
11:49 PM,51.8,51.8,100,30.14,0.5,Calm,Calm,-,N/A,Fog,Fog,0,2012-11-25 07:49:00
11:56 PM,52.0,52.0,100,30.14,0.8,Calm,Calm,-,N/A,,Overcast,0,2012-11-25 07:56:00